Regional Weather Roundup
Issued by NWS

Home | Current Version | Previous Version | Graphics & Text | Print | Product List | Glossary On
Versions: 1 2 3 4 5 6 7 8 9 10 11 12 13 14 15 16 17 18 19 20 21 22 23 24 25 26 27 28 29 30 31 32 33 34 35 36 37 38 39 40 41 42 43 44 45 46 47 48 49 50
000
ASUS43 KMKX 060120
RWRWI

WISCONSIN REGIONAL WEATHER ROUNDUP
NATIONAL WEATHER SERVICE MILWAUKEE/SULLIVAN WI
700 PM CST THU MAR 05 2015

NOTE: "FAIR" INDICATES FEW OR NO CLOUDS BELOW 12,000 FEET WITH NO
SIGNIFICANT WEATHER AND/OR OBSTRUCTIONS TO VISIBILITY.

WIZ001-002-006>008-014>016-023>028-060200-
NORTHWEST WISCONSIN

CITY           SKY/WX    TMP DP  RH WIND       PRES   REMARKS
SUPERIOR ARPT  CLEAR     11  -4  50 SW10      30.32F WCI  -3
ASHLAND        CLEAR      8 -10  43 SW9       30.33S WCI  -5
HAYWARD        CLEAR      4 -10  52 S8        30.33S WCI  -9
SIREN          CLEAR      9  -6  52 SW5       30.36F WCI   0
CUMBERLAND     CLEAR      1  -8  66 S7        30.35S WCI -11
RICE LAKE      CLEAR      6  -5  60 S6        30.38F WCI  -5
CHETEK         CLEAR      4  -7  60 S3        30.39S
LADYSMITH      CLEAR      4 -10  51 SW6       30.38S WCI  -7
EAU CLAIRE     CLEAR      5  -7  57 SW7       30.42S WCI  -7
MENOMONIE      CLEAR      7  -4  60 S5        30.42S WCI  -2
NEW RICHMOND   CLEAR      9  -2  63 S9        30.39S WCI  -5
OSCEOLA        CLEAR      6  -4  62 S7        30.41S WCI  -5
$$

WIZ003>005-009-010-017-018-060200-
NORTH CENTRAL WISCONSIN

CITY           SKY/WX    TMP DP  RH WIND       PRES   REMARKS
MANITOWISH WTR CLEAR      6 -13  42 SW8       30.26S WCI  -7
ARBOR VITAE    CLEAR      9 -11  40 SW6       30.28R WCI  -1
WOODRUFF       CLEAR      9 -11  40 SW6       30.28R WCI  -1
RHINELANDER    CLEAR      4 -12  48 W7        30.29S WCI  -8
EAGLE RIVER    CLEAR      5 -15  39 CALM      30.26F
LAND O LAKES   CLEAR      6 -14  39 SW5       30.25F WCI  -3
PHILLIPS       CLEAR      4 -12  47 SW5       30.31S WCI  -6
TOMAHAWK       CLEAR      6 -12  43 CALM      30.33R
MEDFORD        FAIR       3 -11  53 SW3       30.34F
MERRILL        CLEAR      4 -11  49 SW3       30.36R
$$

WIZ029-030-035-036-043>047-060200-
CENTRAL WISCONSIN

CITY           SKY/WX    TMP DP  RH WIND       PRES   REMARKS
WAUSAU         PTCLDY     6  -9  50 W6        30.37R WCI  -4
MOSINEE        CLEAR      5  -9  51 SW5       30.38S WCI  -4
MARSHFIELD     PTCLDY     6  -9  50 W7        30.38S WCI  -6
STEVENS POINT  PTCLDY     3  -9  56 CALM      30.41R
WAUPACA        CLEAR     12  -6  45 CALM      30.43S
WAUTOMA        CLEAR      9  -7  48 SW6       30.45R WCI  -1
WISC RAPIDS    PTCLDY    10  -9  42 W6        30.43R WCI   0
CAMP DOUGLAS   CLEAR      8  -6  53 SW5       30.44R WCI   0
$$

WIZ011>013-019>022-031-037>040-048>050-060200-
NORTHEAST WISCONSIN

CITY           SKY/WX    TMP DP  RH WIND       PRES   REMARKS
ANTIGO         CLEAR      2 -10  57 SW8       30.33S WCI -12
SHAWANO        CLEAR     12  -8  41 SW7       30.43R WCI   1
OCONTO         CLEAR     10  -7  45 SW6       30.42R WCI   1
STURGEON BAY   CLEAR      9  -8  47 SW9       30.43R WCI  -5
GREEN BAY      CLEAR      8  -6  52 W5        30.44R WCI   0
MANITOWOC      CLEAR      9  -3  58 SW5       30.46R WCI   1
APPLETON       CLEAR     10  -8  44 W7        30.42R WCI   0
CLINTONVILLE   CLEAR     10  -8  44 W5        30.43R WCI   2
OSHKOSH        CLEAR     11  -4  51 SW3       30.44R
$$

WIZ032>034-041-042-053>061-060200-
SOUTHWEST WISCONSIN

CITY           SKY/WX    TMP DP  RH WIND       PRES   REMARKS
LA CROSSE      CLEAR     10  -3  55 S10       30.48R WCI  -4
SPARTA         CLEAR      6  -6  58 SW3       30.47R
VIROQUA        CLEAR      5  -6  61 SW6       30.42S WCI  -6
BOSCOBEL       PTCLDY    10  -4  53 SW7       30.51S WCI  -1
PRAIRIE DU CHI PTCLDY     8  -5  56 S3        30.51F
PLATTEVILLE    PTCLDY     5  -5  63 SW7       30.49R WCI  -7
$$

WIZ056-057-062-063-064-067-068-060200-
SOUTH CENTRAL WISCONSIN

CITY           SKY/WX    TMP DP  RH WIND       PRES   REMARKS
REEDSBURG      CLEAR     10  -4  51 SW5       30.45S WCI   2
BARABOO/DELLS  CLEAR     10  -6  48 CALM      30.44S
LONE ROCK      CLEAR      9  -5  53 SW7       30.49R WCI  -2
MINERAL POINT  PTCLDY     9  -6  52 SW5       30.46R WCI   0
MADISON        CLEAR     10  -4  53 SW6       30.47S WCI   0
MIDDLETON      CLEAR     11  -5  47 SW8       30.47S WCI   0
WATERTOWN      CLEAR      9  -3  60 SW5       30.47R WCI   0
MONROE         PTCLDY     9  -4  56 W10       30.46F WCI  -6
JANESVILLE     CLEAR      9  -6  52 SW6       30.50S WCI  -1
$$

WIZ051-052-058>065-066-070>072-060200-
SOUTHEAST WISCONSIN

CITY           SKY/WX    TMP DP  RH WIND       PRES   REMARKS
MILWAUKEE      CLEAR     13  -6  42 W6        30.49S WCI   4
WAUKESHA       CLEAR      9  -6  52 SW6       30.48R WCI  -1
MILWAUKEE/TIMM CLEAR     10  -6  48 SW6       30.49S WCI   1
RACINE         PTCLDY    10  -6  48 SW6       30.52R WCI   0
BURLINGTON     CLEAR      3  -8  59 SW6       30.50S WCI  -8
KENOSHA        PTCLDY     5  -7  57 W8        30.50R WCI  -8
FOND DU LAC    CLEAR     11  -4  51 SW6       30.45R WCI   1
SHEBOYGAN      CLEAR      6  -6  57 SW7       30.46R WCI  -6
WEST BEND      CLEAR      9  -6  52 SW5       30.46R WCI   0
JUNEAU         CLEAR      9  -3  59 SW5       30.47R WCI   0
$$

LSZ147-162-060200-
LAKE SUPERIOR

STATION/POSITION TIME  TEMP    WIND        PRES    WAVE
                       AIR SEA DIR/SP/G            HT/PER
                 (UTC) (F)     (DEG/KT/KT) (MB)    (FT/S)
DEVILS ISLAND    0100   12     210/ 13/ 16 1027.4F
PORT WING        0040   12     200/  9/ 13 1026.8S
SAXON HARBOR     0000   15     210/  6/ 12 1026.8F
$$

LMZ867-665-643>646-060200-
LAKE MICHIGAN

STATION/POSITION TIME  TEMP    WIND        PRES    WAVE
                       AIR SEA DIR/SP/G            HT/PER
                 (UTC) (F)     (DEG/KT/KT) (MB)    (FT/S)
NORTHPORT PIER   0019   12     180/  3/ 10 1029.1R
KEWAUNEE LAKESHO 0100   11     240/  3/  7 1029.9R
SHEBOYGAN LAKESH 0100   14     230/  8/  9 1033.6R
PORT WASHINGTON  0000   14     260/  5/  8 1032.5R
MILWAUKEE LAKESH 0100   15     260/  8/ 12   N/A
KENOSHA   LAKESH 0100   12     250/  6/ 10 1033.2R
$$

TC  - TEMPERATURE IN CELSIUS
VSB - VISIBILITY IN STATUTE MILES
WCI - WIND CHILL INDEX
HX  - HEAT INDEX




USA.gov is the U.S. government's official web portal to all federal, state and local government web resources and services.